GW6292 Weather Reports


Display with metric or nautical units.
time (UTC)temp
F
wind
direction
speed
MPH
gust
MPH
rain 1hr
in
rain 24hr
in
rain mn
in
humidity
%
barometer
mb
20260504110537 45 24 0.0 0.0 0.00 0.00 0.00 81 1015.6
20260504100459 45 24 0.0 0.0 0.00 0.00 0.00 80 1015.5
20260504081857 45 24 0.0 0.0 0.00 0.00 0.00 82 1016.0
20260504081354 45 24 0.0 0.0 0.00 0.00 0.00 82 1016.0
20260504080850 44 24 0.0 0.0 0.00 0.00 0.00 80 1015.9
20260504080347 44 24 0.0 0.0 0.00 0.00 0.00 78 1016.0
20260504070315 43 24 0.0 0.0 0.00 0.00 0.00 82 1016.1
20260504060235 42 24 0.0 0.0 0.00 0.00 0.00 80 1016.4
20260504050703 41 24 0.0 0.0 0.00 0.00 0.00 84 1016.4
20260504050200 40 24 0.0 0.0 0.00 0.00 0.00 84 1016.5
20260504045657 40 24 0.0 0.0 0.00 0.00 0.00 84 1016.5
20260504045157 41 24 0.0 0.0 0.00 0.00 0.00 84 1016.5
20260504044655 41 24 0.0 0.0 0.00 0.00 0.00 83 1016.3
20260504044152 41 24 0.0 0.0 0.00 0.00 0.00 84 1016.3
20260504043649 41 24 0.0 0.0 0.00 0.00 0.00 83 1016.3
20260504043146 41 24 0.0 0.0 0.00 0.00 0.00 82 1016.5
20260504042644 41 24 0.0 0.0 0.00 0.00 0.00 82 1016.4
20260504042140 41 24 0.0 0.0 0.00 0.00 0.00 81 1016.3
20260504041636 41 24 0.0 0.0 0.00 0.00 0.00 80 1016.3
20260504041132 41 24 0.0 0.0 0.00 0.00 0.00 82 1016.3
20260504040629 40 24 0.0 0.0 0.00 0.00 0.00 82 1016.2
20260504040126 41 24 0.0 0.0 0.00 0.00 0.00 81 1016.4
20260504035623 41 24 0.0 0.0 0.00 0.00 0.00 80 1016.4
20260504035119 41 24 0.0 0.0 0.00 0.00 0.00 80 1016.4
20260504034618 41 24 0.0 0.0 0.00 0.00 0.00 80 1016.2
20260504034114 41 24 0.0 0.0 0.00 0.00 0.00 80 1016.3
20260504033612 41 24 0.0 0.0 0.00 0.00 0.00 79 1016.4
20260504033109 41 24 0.0 0.0 0.00 0.00 0.00 78 1016.2
20260504032606 42 24 0.0 0.0 0.00 0.00 0.00 77 1016.2
20260504032103 42 24 0.0 0.0 0.00 0.00 0.00 76 1016.1
20260504031600 42 24 0.0 0.0 0.00 0.00 0.00 76 1016.0
20260504031056 42 24 0.0 0.0 0.00 0.00 0.00 76 1016.0
20260504030553 42 24 0.0 0.0 0.00 0.00 0.00 76 1016.0
20260504030049 42 24 0.0 0.0 0.00 0.00 0.00 75 1016.0
20260504025547 42 24 0.0 0.0 0.00 0.00 0.00 75 1015.9
20260504025043 42 24 0.0 0.0 0.00 0.00 0.00 76 1015.7
20260504024540 42 24 0.0 0.0 0.00 0.00 0.00 76 1015.8
20260504024037 43 24 0.0 0.0 0.00 0.00 0.00 75 1015.7
20260504023534 43 24 0.0 0.0 0.00 0.00 0.00 73 1015.7
20260504023030 43 24 0.0 0.0 0.00 0.00 0.00 73 1015.8
20260504022525 44 24 1.0 1.0 0.00 0.00 0.00 71 1015.8
20260504022022 44 24 0.0 0.0 0.00 0.00 0.00 72 1015.8
20260504021520 44 24 0.0 0.0 0.00 0.00 0.00 71 1015.9
20260504021017 44 24 0.0 0.0 0.00 0.00 0.00 68 1015.8
20260504020514 44 24 0.0 0.0 0.00 0.00 0.00 68 1015.9
20260504020010 44 24 0.0 0.0 0.00 0.00 0.00 69 1015.8
20260504015507 45 24 0.0 0.0 0.00 0.00 0.00 69 1015.4
20260504015002 45 24 0.0 0.0 0.00 0.00 0.00 68 1015.7
20260504014458 46 24 0.0 0.0 0.00 0.00 0.00 66 1015.5
20260504013955 46 24 0.0 1.0 0.00 0.00 0.00 66 1015.6
20260504013454 46 24 0.0 0.0 0.00 0.00 0.00 65 1015.8
20260504012949 46 24 0.0 0.0 0.00 0.00 0.00 63 1015.5
20260504012448 46 24 0.0 0.0 0.00 0.00 0.00 64 1015.5
20260504011945 47 24 0.0 0.0 0.00 0.00 0.00 63 1015.5
20260504011442 47 24 0.0 0.0 0.00 0.00 0.00 61 1015.4
20260504010937 48 24 0.0 0.0 0.00 0.00 0.00 60 1015.4
20260504010434 48 24 0.0 0.0 0.00 0.00 0.00 57 1015.5
20260504005930 48 24 0.0 0.0 0.00 0.00 0.00 59 1015.3
20260504005427 49 24 0.0 0.0 0.00 0.00 0.00 61 1015.6
20260504004924 49 24 0.0 0.0 0.00 0.00 0.00 62 1015.3
20260504004422 50 24 0.0 0.0 0.00 0.00 0.00 54 1015.1
20260504003919 50 24 0.0 0.0 0.00 0.00 0.00 52 1015.3
20260504003415 51 23 0.0 0.0 0.00 0.00 0.00 52 1015.2
20260504002912 51 24 0.0 0.0 0.00 0.00 0.00 48 1015.1
20260504002409 52 24 0.0 0.0 0.00 0.00 0.00 48 1015.0
20260504001906 53 23 0.0 0.0 0.00 0.00 0.00 47 1015.1
20260504001404 53 24 0.0 0.0 0.00 0.00 0.00 46 1015.0
20260504000900 54 23 0.0 0.0 0.00 0.00 0.00 44 1014.7
20260504000357 54 23 0.0 0.0 0.00 0.00 0.00 43 1014.8
20260503235855 55 23 0.0 0.0 0.00 0.00 0.00 41 1014.9
20260503235353 56 24 0.0 0.0 0.00 0.00 0.00 40 1014.9
20260503234850 57 24 0.0 0.0 0.00 0.00 0.00 38 1014.8
20260503234347 58 23 0.0 0.0 0.00 0.00 0.00 35 1014.8
20260503233845 59 23 1.0 1.0 0.00 0.00 0.00 34 1014.7
20260503233341 59 23 0.0 0.0 0.00 0.00 0.00 32 1014.7
20260503232837 59 23 0.0 0.0 0.00 0.00 0.00 32 1014.8
20260503232335 59 23 2.0 3.0 0.00 0.00 0.00 32 1014.7
20260503231833 60 23 1.0 2.0 0.00 0.00 0.00 32 1014.6
20260503231330 60 23 1.0 2.0 0.00 0.00 0.00 31 1014.6
20260503230825 60 23 1.0 1.0 0.00 0.00 0.00 31 1014.6
20260503230322 60 23 2.0 2.0 0.00 0.00 0.00 30 1014.5
20260503225820 60 23 4.0 4.0 0.00 0.00 0.00 31 1014.4
20260503225316 60 23 2.0 2.0 0.00 0.00 0.00 31 1014.4
20260503224812 60 23 2.0 2.0 0.00 0.00 0.00 29 1014.6
20260503224310 61 23 2.0 3.0 0.00 0.00 0.00 31 1014.7
20260503223808 61 23 3.0 3.0 0.00 0.00 0.00 29 1014.7
20260503223305 61 23 0.0 0.0 0.00 0.00 0.00 29 1014.5
20260503222800 61 23 2.0 3.0 0.00 0.00 0.00 30 1014.7
20260503222259 61 23 1.0 1.0 0.00 0.00 0.00 29 1014.6
20260503221757 61 23 2.0 2.0 0.00 0.00 0.00 29 1014.7
20260503221255 61 23 2.0 3.0 0.00 0.00 0.00 29 1014.8
20260503220751 61 23 0.0 2.0 0.00 0.00 0.00 29 1014.7
20260503220248 61 23 0.0 0.0 0.00 0.00 0.00 30 1014.8
20260503215744 62 22 4.0 4.0 0.00 0.00 0.00 29 1014.8
20260503215242 62 23 2.0 3.0 0.00 0.00 0.00 29 1014.8
20260503214740 62 23 3.0 6.0 0.00 0.00 0.00 28 1014.9
20260503214236 62 23 2.0 4.0 0.00 0.00 0.00 27 1014.6
20260503213734 62 23 0.0 1.0 0.00 0.00 0.00 28 1014.6
20260503213231 62 23 2.0 3.0 0.00 0.00 0.00 27 1014.8
20260503212728 62 22 1.0 2.0 0.00 0.00 0.00 30 1014.9
20260503212226 62 23 2.0 3.0 0.00 0.00 0.00 28 1014.8
20260503211723 62 22 2.0 3.0 0.00 0.00 0.00 27 1014.8
20260503211219 62 22 2.0 3.0 0.00 0.00 0.00 28 1014.9
20260503210715 62 23 6.0 8.0 0.00 0.00 0.00 27 1014.8
20260503210213 62 23 6.0 10.0 0.00 0.00 0.00 27 1014.8
20260503205708 62 22 2.0 3.0 0.00 0.00 0.00 28 1014.8
20260503205204 62 23 4.0 6.0 0.00 0.00 0.00 29 1014.9
20260503204700 62 22 4.0 6.0 0.00 0.00 0.00 30 1014.7
20260503204158 62 23 6.0 7.0 0.00 0.00 0.00 28 1014.8
20260503203655 63 23 0.0 1.0 0.00 0.00 0.00 29 1014.9
20260503203153 62 22 2.0 6.0 0.00 0.00 0.00 29 1014.8
20260503202650 62 23 2.0 2.0 0.00 0.00 0.00 29 1015.0
20260503202148 62 22 1.0 1.0 0.00 0.00 0.00 29 1015.0
20260503201646 62 23 2.0 3.0 0.00 0.00 0.00 29 1015.0
20260503201143 62 23 3.0 4.0 0.00 0.00 0.00 28 1015.1
20260503200639 62 23 5.0 6.0 0.00 0.00 0.00 29 1015.1
20260503200135 62 23 4.0 6.0 0.00 0.00 0.00 30 1015.3
20260503195632 62 23 3.0 4.0 0.00 0.00 0.00 31 1015.1
20260503195129 62 23 5.0 7.0 0.00 0.00 0.00 29 1015.4
20260503194626 61 23 1.0 2.0 0.00 0.00 0.00 31 1015.4
20260503194121 61 23 4.0 6.0 0.00 0.00 0.00 31 1015.5
20260503193618 62 23 6.0 9.0 0.00 0.00 0.00 29 1015.7
20260503193114 60 23 3.0 3.0 0.00 0.00 0.00 33 1015.6
20260503192610 60 23 1.0 2.0 0.00 0.00 0.00 34 1015.9
20260503192106 60 23 3.0 7.0 0.00 0.00 0.00 34 1015.9
20260503191603 60 23 9.0 10.0 0.00 0.00 0.00 33 1015.8
20260503191100 60 23 3.0 4.0 0.00 0.00 0.00 31 1015.9
20260503190557 60 23 4.0 6.0 0.00 0.00 0.00 34 1016.0
20260503190054 59 23 2.0 2.0 0.00 0.00 0.00 34 1016.1
20260503185550 61 23 5.0 9.0 0.00 0.00 0.00 31 1016.0
20260503185050 61 23 5.0 7.0 0.00 0.00 0.00 34 1016.2
20260503184546 60 23 1.0 2.0 0.00 0.00 0.00 34 1016.2
20260503184043 60 23 4.0 4.0 0.00 0.00 0.00 37 1016.4
20260503183539 60 23 4.0 6.0 0.00 0.00 0.00 36 1016.3
20260503183037 59 23 2.0 2.0 0.00 0.00 0.00 37 1016.4
20260503182535 59 23 2.0 6.0 0.00 0.00 0.00 34 1016.4
20260503182033 59 23 5.0 7.0 0.00 0.00 0.00 34 1016.4
20260503181529 58 23 8.0 13.0 0.00 0.00 0.00 34 1016.6
20260503181026 58 23 6.0 8.0 0.00 0.00 0.00 34 1016.5
20260503180523 58 23 1.0 2.0 0.00 0.00 0.00 35 1016.7
20260503180020 57 23 8.0 10.0 0.00 0.00 0.00 35 1016.6
20260503175518 57 23 4.0 6.0 0.00 0.00 0.00 35 1016.6
20260503175014 56 23 8.0 11.0 0.00 0.00 0.00 36 1016.8
20260503174512 58 23 2.0 3.0 0.00 0.00 0.00 35 1016.8
20260503174008 56 23 8.0 11.0 0.00 0.00 0.00 36 1016.7
20260503173503 56 23 1.0 1.0 0.00 0.00 0.00 35 1016.6
20260503172959 56 23 9.0 9.0 0.00 0.00 0.00 35 1016.7
20260503172457 56 23 5.0 9.0 0.00 0.00 0.00 38 1017.0
20260503171954 57 23 4.0 4.0 0.00 0.00 0.00 34 1016.8
20260503171451 56 23 3.0 4.0 0.00 0.00 0.00 37 1016.9
20260503170948 57 23 5.0 6.0 0.00 0.00 0.00 35 1016.9
20260503170444 57 23 5.0 7.0 0.00 0.00 0.00 35 1016.7
20260503150837 52 24 2.0 3.0 0.00 0.00 0.00 43 1017.6
20260503150332 53 24 3.0 6.0 0.00 0.00 0.00 40 1017.6
20260503140257 50 24 2.0 3.0 0.00 0.00 0.00 43 1017.9
20260503131227 49 24 3.0 3.0 0.00 0.00 0.00 46 1017.9
20260503130724 49 24 4.0 4.0 0.00 0.00 0.00 45 1017.6
20260503130221 47 24 3.0 3.0 0.00 0.00 0.00 49 1018.0
20260503120147 44 24 5.0 7.0 0.00 0.00 0.00 57 1017.5